Find Starlink 34020

NORAD ID: 63939 Int'l Des: 2025-098 Owner: SPXS Country: US Constellation: starlink operational
LEOCIRCULAR

現在のビュー

3D地球を読み込み中...

About Starlink 34020

Starlink 34020 (NORAD 63939) is a starlink constellation satellite (v2 mini) launched May 13, 2025 by SPXS of US. It operates in LEO, CIRCULAR orbit with a mass of 575.00 kg.

次回通過

Passes for default location (London). Set your location on the main map for personalized predictions.

高度履歴

Loading altitude history...

軌道要素

1 63939U 25098P 26263.10363617 .00012043 00000-0 42264-3 0 9991
2 63939 70.0004 141.8843 0002398 301.0168 59.0771 15.29586931 75733
Epoch: Sep 20, 2026 • Age: 11 hours

現在のステータス

高度 489.9 km
遠地点 / 近地点 N/A
速度 7.63 km/s
衛星直下点 69.98°N, 29.6°E
打ち上げ日 May 13, 2025
運用期間 1.3 years
タイプ internet

技術仕様

分類 Payload
質量 575.00 kg
乾燥質量 530.00 kg
長さ 0.30 m
スパン 29.00 m
形状 ? Box + pan
製造者 SPXS
バスタイプ Starlink V2MO
フェーズステータス In Orbit
所有者/国 SPXS/US

Most Searched